FW9473 Weather Reports


time (UTC)temp
F
wind
direction
speed
knots
gust
knots
rain 1hr
in
rain 24hr
in
rain mn
in
humidity
%
barometer
mb
20260906071553 72 0 0.0 0.0 0.00 0.00 0.00 94 1014.7
20260906070100 72 0 0.0 0.0 0.00 0.00 0.00 94 1014.9
20260906064552 72 0 0.0 0.0 0.00 0.00 0.00 94 1015.0
20260906063055 72 0 0.0 0.0 0.00 0.00 0.00 94 1015.1
20260906061607 72 0 0.0 0.0 0.00 0.00 0.00 93 1015.7
20260906060059 72 0 0.0 0.0 0.00 0.00 0.00 93 1015.6
20260906054607 73 0 0.0 0.0 0.00 0.00 0.00 92 1015.9
20260906053117 73 0 0.0 0.0 0.00 0.00 0.00 92 1015.9
20260906051550 73 0 0.0 0.0 0.00 0.00 0.00 91 1016.4
20260906050053 73 0 0.0 0.0 0.00 0.00 0.00 91 1016.2
20260906044549 74 0 0.0 0.0 0.00 0.00 0.00 90 1016.3
20260906043058 74 0 0.0 0.0 0.00 0.00 0.00 89 1015.8
20260906041555 74 0 0.0 0.0 0.00 0.00 0.00 89 1015.9
20260906040052 74 0 0.0 0.0 0.00 0.00 0.00 88 1016.0
20260906034558 74 0 0.0 0.0 0.00 0.00 0.00 88 1015.9
20260906033056 73 0 0.0 0.0 0.00 0.00 0.00 88 1016.1
20260906031551 74 0 0.0 0.0 0.00 0.00 0.00 87 1016.2
20260906024618 75 0 0.0 0.0 0.00 0.00 0.00 85 1015.9
20260906023100 74 0 0.0 0.0 0.00 0.00 0.00 85 1015.8
20260906021601 75 0 0.0 0.0 0.00 0.00 0.00 84 1015.8
20260906020100 75 0 0.0 0.0 0.00 0.00 0.00 82 1016.2
20260906014554 76 0 0.0 0.0 0.00 0.00 0.00 81 1016.1
20260906013050 76 0 0.0 0.0 0.00 0.00 0.00 80 1016.2
20260906011558 76 0 0.0 0.0 0.00 0.00 0.00 78 1015.9
20260906010129 77 0 0.0 0.0 0.00 0.00 0.00 77 1015.9
20260906004603 78 0 0.0 0.0 0.00 0.00 0.00 75 1015.4
20260906003110 79 0 0.0 0.0 0.00 0.00 0.00 74 1015.1
20260906001609 80 0 0.0 0.0 0.00 0.00 0.00 72 1014.9
20260906000058 80 0 0.0 0.0 0.00 0.00 0.00 71 1015.2
20260905234553 80 0 0.0 0.0 0.00 0.00 0.00 71 1015.1
20260905233103 82 0 0.0 0.0 0.00 0.00 0.00 69 1015.0
20260905231551 82 0 0.0 0.0 0.00 0.00 0.00 68 1014.9
20260905230115 82 0 0.9 3.5 0.00 0.00 0.00 66 1014.6
20260905224553 83 0 0.9 3.5 0.00 0.00 0.00 64 1014.9
20260905223104 83 279 1.7 4.3 0.00 0.00 0.00 65 1015.1
20260905221608 83 40 0.9 5.2 0.00 0.00 0.00 66 1015.0
20260905220056 83 297 1.7 3.5 0.00 0.00 0.00 65 1014.8
20260905214553 83 282 0.0 6.1 0.00 0.00 0.00 65 1015.1
20260905213102 83 308 1.7 4.3 0.00 0.00 0.00 65 1015.3
20260905211552 82 235 0.9 4.3 0.00 0.00 0.00 65 1015.4
20260905210105 83 0 0.0 3.5 0.00 0.00 0.00 62 1015.1
20260905204602 82 301 1.7 2.6 0.00 0.00 0.00 64 1015.6
20260905203103 82 41 2.6 7.8 0.00 0.00 0.00 65 1015.6
20260905201609 82 55 6.1 13.9 0.00 0.00 0.00 63 1015.4
20260905194556 84 46 5.2 14.8 0.00 0.00 0.00 60 1015.9
20260905193051 88 53 8.7 20.0 0.00 0.00 0.00 58 1015.7
20260905191559 96 0 0.0 0.0 0.00 0.00 0.00 49 1015.0
20260905190049 98 0 0.0 0.0 0.00 0.00 0.00 47 1014.6
20260905184611 97 0 0.0 0.0 0.00 0.00 0.00 48 1014.6
20260905183109 96 0 0.0 0.0 0.00 0.00 0.00 49 1014.9
20260905181554 97 0 0.0 0.0 0.00 0.00 0.00 48 1015.2
20260905180105 97 0 0.0 0.0 0.00 0.00 0.00 50 1015.6
20260905174554 95 0 0.0 0.0 0.00 0.00 0.00 49 1015.6
20260905173110 95 0 0.0 0.0 0.00 0.00 0.00 50 1015.9
20260905171603 96 0 0.0 0.0 0.00 0.00 0.00 50 1015.7
20260905170108 95 0 0.0 0.0 0.00 0.00 0.00 52 1016.3
20260905164603 94 0 0.0 0.0 0.00 0.00 0.00 54 1016.5
20260905163101 94 0 0.0 0.0 0.00 0.00 0.00 55 1016.9
20260905161559 92 0 0.0 0.0 0.00 0.00 0.00 57 1017.1
20260905160056 91 0 0.0 0.0 0.00 0.00 0.00 61 1017.3
20260905154551 90 0 0.0 0.0 0.00 0.00 0.00 63 1017.4
20260905153048 90 0 0.0 0.0 0.00 0.00 0.00 65 1017.7
20260905151558 89 0 0.0 0.0 0.00 0.00 0.00 67 1017.7
20260905150105 88 0 0.0 0.0 0.00 0.00 0.00 70 1017.7
20260905144550 87 0 0.0 0.0 0.00 0.00 0.00 71 1017.7
20260905143100 85 0 0.0 0.0 0.00 0.00 0.00 74 1017.8
20260905141600 84 0 0.0 0.0 0.00 0.00 0.00 74 1018.1
20260905140107 85 0 0.0 0.0 0.00 0.00 0.00 74 1018.1
20260905134553 84 0 0.0 0.0 0.00 0.00 0.00 76 1018.1
20260905133047 83 0 0.0 0.0 0.00 0.00 0.00 77 1018.0
20260905131601 81 0 0.0 0.0 0.00 0.00 0.00 81 1018.1
20260905130054 80 0 0.0 0.0 0.00 0.00 0.00 84 1018.1
20260905124605 79 0 0.0 0.0 0.00 0.00 0.00 87 1018.1
20260905123106 77 0 0.0 0.0 0.00 0.00 0.00 91 1018.1
20260905121552 74 0 0.0 0.0 0.00 0.00 0.00 94 1017.9
20260905114555 72 0 0.0 0.0 0.00 0.00 0.00 95 1017.8
20260905113052 72 0 0.0 0.0 0.00 0.00 0.00 95 1017.6
20260905111606 73 0 0.0 0.0 0.00 0.00 0.00 95 1017.3
20260905110058 73 0 0.0 0.0 0.00 0.00 0.00 94 1017.2
20260905104609 73 0 0.0 0.0 0.00 0.00 0.00 94 1017.0
20260905103051 73 0 0.0 0.0 0.00 0.00 0.00 94 1016.9
20260905101605 73 0 0.0 0.0 0.00 0.00 0.00 94 1016.8
20260905100105 73 0 0.0 0.0 0.00 0.00 0.00 94 1016.9
20260905094552 73 0 0.0 0.0 0.00 0.00 0.00 93 1016.8
20260905093052 73 0 0.0 0.0 0.00 0.00 0.00 93 1017.0
20260905091550 73 0 0.0 0.0 0.00 0.00 0.00 93 1016.7
20260905090131 74 0 0.0 0.0 0.00 0.00 0.00 92 1016.8
20260905084552 74 0 0.0 0.0 0.00 0.00 0.00 92 1017.0
20260905083100 74 0 0.0 0.0 0.00 0.00 0.00 91 1017.2
20260905081558 74 0 0.0 0.0 0.00 0.00 0.00 91 1016.9
20260905080050 74 0 0.0 0.0 0.00 0.00 0.00 91 1017.2
20260905074600 75 0 0.0 0.0 0.00 0.00 0.00 89 1017.3
20260905073056 75 0 0.0 0.0 0.00 0.00 0.00 89 1017.4